Location: Carri�res
(48.9069°N, 2.1792°E)
Time: 13:10:17
(UTC+00:00)

Cosmos 1626 - Pass Details

Date: 17 January 2021
Orbit: 490 x 494 km, 82.5° (Epoch: 25 February)

Event Time Altitude Azimuth Distance (km) Brightness Sun altitude
Rises 17:43:25 0° 193° (SSW) 2,566 6.2 -12.5°
Reaches altitude 10° 17:45:31 10° 195° (SSW) 1,688 5.2 -12.8°
Maximum altitude 17:49:13 73° 281° (W) 522 2.3 -13.4°
Drops below altitude 10° 17:52:56 10° 6° (N) 1,701 4.6 -14.0°
Enters shadow 17:54:49 - 8° (N) 2,487 5.4 -14.3°
